Regional Weather Roundup
Issued by NWS

Home | Current Version | Previous Version | Text Only | Print | Product List | Glossary Off
Versions: 1 2 3 4 5 6 7 8 9 10 11 12 13 14 15 16 17 18 19 20 21 22 23 24 25 26 27 28

000
ASUS45 KBOI 240910
RWRID
WEATHER ROUNDUP FOR IDAHO
NATIONAL WEATHER SERVICE BOISE ID
300 AM MDT THU APR 24 2014

NOTE: "FAIR" INDICATES FEW OR NO CLOUDS BELOW 12000 FEET
WITH NO SIGNIFICANT WEATHER AND/OR OBSTRUCTIONS TO VISIBILITY

IDZ012-014-241000-
SOUTHWEST IDAHO


CITY           SKY/WX    TMP DP  RH WIND       PRES   REMARKS
BOISE          CLOUDY    47  34  60 S5        29.94S
CALDWELL       CLOUDY    52  28  40 SE7       29.94F
MOUNTAIN HOME  CLOUDY    42  32  68 E8        29.94F
$$

IDZ016-017-241000-
SOUTHCENTRAL IDAHO


CITY           SKY/WX    TMP DP  RH WIND       PRES   REMARKS
BURLEY         CLEAR     39  28  64 S12       29.97F WCI  32
JEROME         PTCLDY    38  27  64 SE7       29.98F WCI  33
TWIN FALLS     PTCLDY    45  26  47 S14       29.96F
$$

IDZ019>023-241000-
SOUTHEAST IDAHO


CITY           SKY/WX    TMP DP  RH WIND       PRES   REMARKS
IDAHO FALLS    CLEAR     34  26  72 SW9       29.99F WCI  27
POCATELLO      PTCLDY    41  24  51 S14       30.00F
REXBURG        CLEAR     38  24  57 S12       29.99S WCI  30
$$

IDZ006-010-011-018-031-032-241000-
CENTRAL IDAHO MOUNTAINS


CITY           SKY/WX    TMP DP  RH WIND       PRES   REMARKS
MCCALL         CLOUDY    37  31  78 SE8       29.90F WCI  31
HAILEY         CLOUDY    36  27  69 NW6       30.00F WCI  31
STANLEY          N/A     34  25  69 SE5       29.96S WCI  30
SALMON         CLOUDY    45  23  42 S3        29.89F
CHALLIS        CLOUDY    42  20  41 S9        29.93F
$$

IDZ002-004-006-007-026-241000-
NORTHERN IDAHO


CITY           SKY/WX    TMP DP  RH WIND       PRES   REMARKS
LEWISTON       CLOUDY    44  38  79 E7        29.83F
LOWELL           N/A     41  39  93 CALM      29.92F
COEUR D`ALENE  CLOUDY    41  37  87 S7        29.83S
MULLAN PASS    SNOW      28  27  96 SE3       29.78F VSB 1/2
$$



USA.gov is the U.S. government's official web portal to all federal, state and local government web resources and services.